Location: Dürabuch
(48.2640°N, 11.2185°E)
Time: 07:54:46
(UTC+00:00)

YAOGAN 6 - Pass Details

Date: 23 May 2024
Orbit: 410 x 434 km, 97.2° (Epoch: 15 June)

Event Time Altitude Azimuth Distance (km) Brightness Sun altitude
Rises 02:37:25 0° 19° (NNE) 2,437 7.4 -7.2°
Reaches altitude 10° 02:39:33 10° 27° (NNE) 1,559 6.5 -7.0°
Maximum altitude 02:42:42 38° 98° (E) 679 3.7 -6.6°
Drops below altitude 10° 02:45:48 10° 169° (SSE) 1,533 4.8 -6.2°
Sets 02:47:53 0° 177° (S) 2,389 5.7 -5.9°
